Wetbulb
55.03 56.19 56.72 57.01 57.12 57.15 57.45 57.68 57.92 58.16 58.23 58.71 59.09 59.71 59.60 59.38 58.35 52.94 46.17 52.45 55.93 64.65 62.11 53.99 53.16 53.59 53.29 50.36 51.62 52.47 46.24 45.70 48.87 49.64 51.66 55.92 54.58 57.01 57.00 54.04 56.90 60.68 64.45 66.06 70.51
55.19 56.21 56.73 57.00 57.00 57.07 57.26 57.53 57.95 58.29 58.75 59.09 59.39 59.26 59.09 58.83 52.55 49.89 57.72 64.21 65.75 63.79 52.52 50.60 50.33 52.45 49.94 49.09 51.05 49.09 45.07 49.27 53.79 53.28 53.90 55.21 54.94 54.37 53.31 53.03 51.64 56.16 61.20 62.96 63.48
55.24 56.26 56.63 56.81 56.78 56.90 57.18 57.58 57.90 58.53 58.99 59.09 59.02 58.61 58.74 57.51 50.65 54.25 65.99 65.24 65.92 61.88 52.82 52.05 50.83 51.11 47.01 47.61 48.58 48.00 46.53 52.40 54.28 55.80 56.23 56.04 56.98 55.66 50.61 50.54 50.87 51.34 52.69 54.00 54.26
55.69 56.32 56.52 56.59 56.79 56.87 57.22 57.51 57.89 58.34 58.67 58.58 58.41 58.12 58.48 53.59 43.05 52.60 66.55 66.30 64.76 55.93 53.47 50.90 50.21 45.95 45.05 45.41 49.02 45.64 50.87 53.63 53.92 55.39 56.17 56.55 58.20 53.53 50.41 50.86 53.46 53.43 54.26 53.29 53.23
55.64 56.30 56.36 56.42 56.74 56.94 57.37 57.53 57.69 57.81 58.12 58.16 58.38 58.15 53.49 49.16 51.61 57.96 65.95 63.91 55.83 53.19 51.29 49.31 47.34 46.88 45.38 46.37 49.17 47.74 49.60 51.34 54.77 54.04 54.50 56.93 55.32 55.57 51.10 52.88 54.42 53.10 53.84 52.89 52.14
55.80 55.97 56.15 56.43 56.68 57.24 57.46 57.42 57.24 57.31 57.67 58.09 58.40 57.80 52.40 47.15 57.59 57.01 56.35 55.10 53.79 51.21 48.78 49.00 49.08 49.83 48.31 47.82 47.00 49.88 49.80 50.74 52.65 53.08 49.57 50.46 50.23 50.99 55.86 54.28 53.78 53.57 52.26 52.26 53.97
55.92 55.68 55.94 56.33 56.72 57.36 57.50 56.85 56.49 57.03 57.73 58.29 58.92 56.88 52.29 51.27 56.78 55.45 55.51 52.93 54.25 53.93 51.59 52.37 52.32 50.24 47.76 46.54 48.57 49.28 45.56 46.84 48.02 49.59 49.18 50.24 47.61 48.36 52.20 52.53 52.19 52.51 52.11 53.68 55.59
55.60 55.54 55.78 56.35 56.80 57.34 57.32 56.78 56.27 57.02 57.85 58.57 59.47 54.40 49.41 59.44 56.22 53.39 53.14 53.30 54.39 54.84 54.90 55.67 52.18 48.54 46.42 47.45 47.72 44.99 43.81 39.86 44.26 48.73 50.09 49.12 44.43 49.88 51.72 50.42 50.36 51.83 52.44 53.40 55.87
55.20 54.99 55.33 55.96 56.69 57.12 56.87 56.11 56.89 57.88 58.56 59.08 53.56 50.49 49.49 59.79 51.78 54.59 54.07 53.20 53.23 52.77 52.70 55.34 50.15 46.41 46.37 42.17 40.14 41.24 37.80 39.52 43.62 48.78 48.99 46.64 44.73 48.85 51.59 50.73 49.61 50.41 51.47 56.78 57.42
54.59 54.66 54.87 55.31 56.06 56.02 55.27 55.20 57.30 56.21 57.57 57.49 56.42 49.02 51.90 52.26 52.27 54.88 54.14 54.49 52.07 51.03 50.16 48.71 43.85 41.10 40.22 39.27 34.55 38.32 38.62 41.85 42.52 46.46 46.05 43.42 44.14 47.29 51.27 49.86 49.38 49.86 54.23 56.08 56.45
54.33 54.22 54.44 54.95 55.51 55.17 52.10 51.16 51.04 50.02 50.25 50.51 51.84 51.68 51.99 52.89 53.11 52.33 54.47 52.35 50.63 48.20 42.42 45.14 40.59 37.42 40.16 41.63 42.94 42.71 43.40 41.18 44.99 47.25 43.48 41.53 43.35 45.99 49.15 49.55 48.98 49.05 54.59 55.38 56.85
53.61 53.93 54.26 54.58 54.87 54.50 50.60 48.69 52.52 51.38 46.56 53.17 54.54 54.56 55.79 51.25 49.29 51.21 53.34 47.84 47.43 42.74 45.12 42.57 39.22 44.47 44.99 44.43 43.74 43.14 41.51 41.01 45.14 47.69 45.25 43.39 43.29 46.69 48.43 48.11 48.42 50.01 54.57 56.42 56.21
52.55 53.11 53.80 54.36 54.07 51.81 49.66 52.92 56.73 53.59 46.39 52.12 54.20 52.98 49.50 49.70 48.60 49.45 51.07 48.86 46.34 43.90 43.93 40.86 44.67 48.55 46.27 44.40 43.65 41.74 41.51 42.34 42.52 45.52 45.07 42.53 40.57 43.54 47.53 50.24 50.65 53.70 55.89 57.44 57.70
52.13 52.48 53.15 52.65 51.69 51.91 50.07 54.75 53.92 53.68 41.85 48.45 46.93 49.60 49.83 49.93 48.83 53.30 52.77 49.79 47.65 44.92 44.98 43.05 46.88 46.38 44.99 45.41 45.11 38.79 44.80 44.74 44.29 40.36 36.99 42.45 32.31 39.52 43.63 46.28 51.54 53.69 54.71 55.06 56.38
51.57 52.34 52.77 51.79 48.68 48.36 52.34 51.83 53.95 52.74 34.69 51.72 47.17 51.21 49.35 47.22 49.75 50.41 53.25 51.66 46.65 45.67 44.14 42.45 45.47 44.22 43.31 44.32 46.71 43.25 46.07 43.10 42.98 38.24 35.38 37.82 33.76 38.68 43.47 44.40 46.08 49.42 52.08 52.24 55.01
51.20 52.22 52.03 52.07 50.33 52.95 54.19 53.98 51.42 42.56 37.34 45.42 47.58 46.03 44.94 47.26 48.52 50.47 51.40 52.11 50.86 48.13 47.53 44.60 47.02 45.95 44.73 46.44 46.30 48.05 43.59 40.15 38.15 35.70 30.96 37.04 35.74 38.96 41.32 45.41 47.84 49.33 50.22 51.27 52.32
50.78 51.29 49.69 53.45 49.04 52.73 54.46 49.74 40.04 35.58 50.72 45.44 43.91 46.19 44.95 45.03 47.02 48.23 46.98 44.49 41.58 38.43 39.02 45.39 43.96 46.16 46.89 42.46 44.06 41.83 35.24 29.11 29.62 29.54 30.63 39.23 39.19 36.65 46.65 48.89 49.01 48.79 49.76 50.64 51.08
49.68 50.05 50.12 53.65 51.76 53.93 52.90 45.89 34.41 46.29 46.28 48.60 47.17 45.80 45.55 46.12 45.68 46.91 45.35 41.92 45.93 43.32 39.69 38.74 37.82 44.77 46.82 42.24 38.17 38.39 37.28 31.04 26.55 27.21 30.44 40.58 35.85 39.46 48.78 49.63 50.40 50.09 49.15 49.52 49.37
49.17 49.00 51.16 53.22 54.55 53.51 49.18 40.10 41.19 47.20 47.77 46.94 46.04 43.00 43.42 46.24 46.24 44.88 43.82 42.90 44.74 44.22 37.05 37.30 40.18 48.18 47.17 45.93 41.90 38.87 35.98 37.97 32.68 31.42 31.08 35.47 40.65 44.53 46.92 45.83 45.72 44.98 45.24 44.38 45.01
44.20 48.75 51.22 56.19 55.85 52.77 45.79 42.16 47.29 50.61 51.12 48.94 42.64 44.90 40.86 43.26 42.47 42.29 43.73 46.74 46.11 46.60 43.99 41.35 35.81 45.75 48.55 47.45 45.45 39.69 42.09 34.22 31.52 25.83 24.29 32.53 34.61 35.32 40.54 40.40 42.40 42.44 42.20 43.30 44.11
46.54 48.31 55.28 56.57 55.41 48.42 40.45 43.34 49.42 50.99 51.34 47.46 44.58 44.28 44.49 43.16 43.30 42.29 44.02 46.38 47.89 47.18 46.75 42.48 38.56 40.38 43.75 40.77 40.01 40.02 37.28 36.24 33.86 32.37 26.48 25.56 30.51 40.06 38.86 40.25 40.17 41.18 42.25 41.71 41.82
42.43 43.79 55.04 53.21 43.89 42.67 40.97 48.29 50.53 49.76 50.95 49.50 47.30 46.78 44.70 45.12 43.41 44.03 44.07 46.07 49.71 48.23 43.23 42.10 37.55 33.15 37.81 44.97 46.84 42.58 39.30 36.14 29.52 30.54 31.23 29.17 27.83 41.51 40.82 41.05 40.69 40.55 41.71 41.91 41.67
38.77 43.75 53.12 50.94 38.79 40.14 45.61 49.86 49.56 49.46 48.61 48.23 47.11 47.68 46.39 42.92 37.98 44.98 46.27 49.19 49.83 46.72 41.69 39.71 34.11 27.87 29.43 39.11 42.74 40.56 41.30 38.76 35.79 32.47 29.53 25.65 28.66 41.43 41.43 40.63 40.61 39.25 40.37 40.89 42.32
42.01 42.81 44.37 46.86 44.54 42.73 43.29 46.53 45.33 49.23 48.56 47.96 46.77 47.07 44.79 42.65 43.13 42.02 44.93 49.16 49.39 46.99 50.76 43.49 33.50 31.07 26.29 33.25 38.57 36.74 39.98 39.97 34.20 24.58 29.26 31.06 33.12 36.95 38.29 38.58 39.26 39.08 39.18 39.19 39.63
44.55 41.23 42.40 39.72 43.26 42.90 44.07 45.83 45.93 44.46 47.52 47.03 45.24 46.15 43.25 36.24 40.21 41.13 45.26 45.49 46.83 50.34 43.95 40.91 34.92 36.75 38.62 41.43 41.46 39.54 38.30 38.91 35.05 33.34 28.27 33.14 34.71 36.61 37.51 38.26 38.70 39.33 39.73 39.28 38.24
38.37 39.16 41.09 41.57 44.44 43.08 42.11 44.98 45.63 46.41 45.37 43.96 42.54 45.89 43.93 39.73 40.58 38.53 41.97 41.10 41.14 43.35 41.74 40.45 33.94 36.45 35.98 41.60 40.98 38.34 39.30 39.04 38.03 37.54 36.37 36.80 35.37 39.34 39.59 40.18 39.21 38.41 37.97 36.72 36.98
43.50 42.59 41.70 42.06 42.93 40.98 39.96 43.29 45.62 45.72 46.41 47.00 44.84 43.86 42.74 43.92 44.51 42.69 41.86 42.07 41.82 39.27 37.90 36.86 34.59 30.49 30.17 39.07 37.31 29.35 36.69 38.46 38.86 39.32 38.09 32.40 36.44 38.11 37.59 38.25 37.56 36.55 36.61 36.21 37.73
MSLP
1017.68 1017.30 1016.97 1016.72 1016.48 1016.22 1016.01 1015.83 1015.67 1015.58 1015.49 1015.37 1015.21 1014.99 1014.73 1014.43 1013.87 1013.60 1012.79 1010.60 1010.30 1009.89 1010.09 1009.81 1009.32 1009.30 1009.27 1009.50 1009.27 1009.42 1010.54 1010.59 1010.04 1009.52 1008.79 1007.78 1007.51 1007.10 1006.97 1006.16 1006.38 1005.68 1005.70 1006.21 1006.89
1017.58 1017.19 1016.89 1016.61 1016.32 1016.10 1015.89 1015.70 1015.56 1015.47 1015.37 1015.23 1015.03 1014.77 1014.58 1014.41 1014.04 1012.79 1009.96 1009.75 1009.82 1009.97 1009.89 1009.97 1009.89 1009.83 1009.75 1009.38 1009.29 1009.65 1010.30 1009.96 1008.94 1008.69 1008.27 1008.22 1007.68 1007.53 1007.39 1007.18 1006.88 1006.79 1006.90 1007.03 1007.04
1017.49 1017.09 1016.74 1016.44 1016.17 1015.96 1015.77 1015.61 1015.51 1015.40 1015.24 1015.05 1014.83 1014.59 1014.49 1014.40 1013.66 1010.71 1008.98 1009.20 1009.49 1009.91 1009.94 1009.95 1010.01 1010.15 1009.98 1009.48 1009.30 1009.36 1009.56 1009.00 1008.78 1008.36 1007.91 1007.55 1007.32 1007.24 1007.41 1007.58 1007.49 1007.23 1006.74 1006.75 1007.10
1017.28 1016.89 1016.55 1016.25 1015.99 1015.77 1015.60 1015.45 1015.36 1015.24 1015.07 1014.91 1014.75 1014.58 1014.37 1014.26 1012.52 1009.25 1008.90 1009.30 1009.71 1009.82 1009.92 1009.84 1009.97 1010.26 1010.02 1009.66 1009.02 1009.32 1008.74 1008.67 1008.02 1007.70 1007.75 1007.25 1006.48 1006.70 1007.49 1007.70 1007.06 1006.83 1006.63 1006.64 1006.65
1017.16 1016.76 1016.40 1016.11 1015.86 1015.63 1015.43 1015.28 1015.18 1015.08 1014.93 1014.78 1014.63 1014.49 1014.31 1013.43 1011.03 1008.79 1008.98 1009.35 1009.60 1009.71 1009.82 1009.96 1010.00 1010.15 1009.90 1009.35 1009.13 1009.08 1008.60 1007.93 1007.32 1007.07 1007.32 1006.98 1007.16 1006.61 1006.76 1007.14 1007.02 1006.89 1006.80 1006.87 1006.88
1017.05 1016.64 1016.27 1015.92 1015.65 1015.41 1015.19 1015.02 1014.92 1014.83 1014.71 1014.60 1014.47 1014.42 1014.00 1012.14 1008.84 1008.54 1008.76 1009.35 1009.46 1009.66 1009.60 1009.80 1009.27 1009.66 1009.49 1009.19 1009.19 1008.52 1008.39 1007.62 1007.15 1006.96 1007.19 1007.34 1007.03 1007.13 1006.95 1006.66 1006.91 1006.66 1006.97 1007.11 1007.28
1017.04 1016.58 1016.13 1015.73 1015.36 1015.08 1014.89 1014.74 1014.64 1014.56 1014.47 1014.34 1014.26 1014.08 1013.35 1010.46 1008.52 1008.46 1008.81 1008.62 1008.74 1009.01 1009.16 1009.08 1008.93 1009.37 1008.94 1008.75 1008.31 1008.35 1008.41 1007.57 1006.80 1006.75 1007.10 1007.03 1007.47 1006.84 1006.60 1006.81 1006.03 1006.88 1007.13 1006.83 1007.26
1016.95 1016.52 1016.08 1015.62 1015.20 1014.89 1014.62 1014.41 1014.36 1014.25 1014.16 1014.10 1014.15 1013.90 1012.08 1008.90 1008.43 1008.58 1008.60 1008.49 1008.31 1008.52 1008.69 1008.22 1008.36 1008.49 1008.72 1008.62 1008.45 1008.60 1008.55 1008.01 1007.11 1006.88 1006.65 1006.69 1006.54 1006.54 1006.64 1006.80 1006.83 1007.13 1007.29 1007.35 1008.77
1016.92 1016.46 1016.03 1015.56 1015.03 1014.63 1014.28 1013.92 1013.91 1013.88 1013.97 1013.98 1014.06 1013.50 1011.11 1008.50 1008.32 1007.63 1007.80 1007.96 1007.79 1007.90 1008.12 1007.76 1008.06 1008.72 1008.82 1009.36 1009.71 1009.76 1009.32 1008.63 1007.89 1006.68 1006.51 1006.76 1006.31 1006.16 1006.15 1006.71 1006.99 1007.13 1007.60 1008.71 1009.65
1016.93 1016.36 1015.89 1015.47 1014.90 1014.40 1013.64 1013.34 1013.36 1013.54 1014.01 1013.85 1013.34 1013.10 1010.53 1008.56 1007.75 1007.44 1007.29 1007.36 1007.76 1007.99 1008.25 1008.34 1009.12 1009.55 1010.02 1010.37 1010.67 1010.27 1009.60 1008.84 1008.19 1007.16 1006.37 1006.53 1006.34 1006.35 1006.39 1006.82 1007.17 1007.97 1008.88 1009.46 1010.15
1016.93 1016.29 1015.71 1015.34 1014.88 1014.48 1013.50 1013.06 1013.65 1013.56 1013.10 1012.18 1011.48 1010.65 1009.19 1008.00 1007.47 1007.44 1007.40 1007.61 1007.87 1008.39 1009.14 1009.24 1010.16 1010.40 1010.24 1010.23 1010.33 1010.19 1009.84 1009.58 1008.35 1007.43 1006.75 1006.96 1006.78 1006.57 1006.60 1007.11 1007.91 1008.86 1009.53 1010.30 1010.84
1016.99 1016.23 1015.50 1014.94 1014.65 1014.42 1014.24 1013.67 1012.41 1012.10 1011.55 1010.23 1009.73 1009.38 1008.30 1007.65 1007.67 1007.41 1007.43 1008.09 1008.50 1009.13 1009.46 1010.11 1010.10 1009.29 1009.46 1009.65 1009.80 1009.71 1009.63 1009.35 1008.59 1007.63 1007.45 1007.68 1007.52 1007.33 1007.23 1007.32 1007.73 1009.18 1010.17 1010.62 1011.36
1016.91 1016.26 1015.48 1014.61 1014.06 1014.09 1013.66 1012.24 1010.61 1011.14 1011.43 1009.39 1008.44 1008.02 1007.40 1007.26 1007.39 1007.29 1007.46 1007.79 1008.46 1009.17 1009.43 1009.80 1008.82 1008.23 1008.94 1009.04 1009.29 1009.88 1009.51 1009.50 1009.21 1008.78 1008.66 1008.82 1009.12 1008.41 1007.89 1008.05 1008.46 1009.23 1010.19 1011.07 1011.43
1016.73 1016.09 1015.41 1014.46 1013.84 1013.77 1012.69 1010.89 1010.62 1010.90 1011.28 1009.33 1007.91 1006.93 1006.86 1006.96 1007.25 1006.88 1006.88 1007.59 1008.19 1008.68 1008.52 1008.98 1008.79 1008.43 1008.53 1008.72 1008.78 1009.36 1009.41 1009.51 1009.86 1010.38 1010.73 1010.53 1011.28 1010.30 1009.60 1009.55 1009.68 1010.52 1010.82 1011.49 1012.07
1016.43 1015.82 1015.31 1015.14 1014.48 1013.51 1011.35 1010.75 1010.56 1010.67 1010.80 1008.29 1007.24 1006.12 1006.54 1007.16 1007.15 1006.94 1006.71 1007.23 1008.08 1008.54 1008.99 1009.03 1008.43 1008.51 1008.67 1008.91 1008.84 1009.54 1009.42 1009.82 1010.29 1011.20 1011.76 1012.05 1012.43 1012.53 1010.91 1011.57 1012.07 1012.45 1012.70 1013.36 1013.64
1016.01 1015.44 1015.16 1014.51 1014.55 1012.04 1011.36 1010.94 1010.94 1011.53 1009.85 1008.17 1006.96 1006.67 1007.02 1007.07 1007.19 1006.98 1007.34 1007.69 1008.36 1008.90 1009.09 1009.09 1008.58 1008.72 1008.84 1008.87 1009.03 1009.51 1010.11 1010.87 1011.77 1012.46 1013.66 1013.38 1013.11 1014.47 1013.47 1013.70 1013.79 1014.11 1014.34 1014.73 1014.68
1015.23 1014.72 1014.76 1013.71 1012.66 1011.31 1011.44 1011.58 1012.23 1011.40 1009.19 1008.07 1007.37 1007.09 1007.26 1007.47 1007.60 1007.77 1008.80 1009.56 1010.16 1010.40 1011.01 1010.09 1009.47 1009.04 1008.96 1009.35 1009.57 1010.40 1011.70 1013.02 1014.23 1014.71 1015.08 1014.36 1014.67 1015.57 1015.22 1014.51 1014.83 1014.99 1015.19 1015.47 1015.61
1014.81 1013.57 1013.37 1012.34 1011.46 1011.82 1012.33 1012.72 1012.39 1010.68 1009.33 1008.15 1007.58 1007.33 1007.62 1007.92 1008.31 1008.67 1009.79 1010.71 1011.09 1011.54 1012.14 1011.96 1010.98 1010.20 1009.80 1010.13 1010.75 1011.45 1012.63 1014.36 1015.73 1016.36 1016.06 1015.41 1015.91 1016.15 1015.65 1015.42 1015.49 1016.02 1016.54 1017.05 1017.20
1014.43 1013.37 1013.03 1011.00 1011.13 1012.10 1013.03 1013.25 1012.09 1010.35 1009.21 1008.69 1008.09 1008.23 1008.22 1008.29 1008.70 1009.43 1010.67 1011.64 1012.09 1012.31 1012.93 1013.09 1012.19 1011.04 1010.37 1010.42 1011.09 1011.99 1013.15 1014.14 1015.82 1017.06 1017.04 1017.18 1016.87 1016.23 1015.91 1016.51 1017.16 1018.12 1018.52 1019.14 1019.43
1015.72 1014.40 1012.49 1010.09 1010.83 1012.29 1013.18 1013.05 1011.43 1009.85 1009.20 1008.94 1009.36 1009.35 1009.55 1009.49 1009.85 1010.40 1011.60 1012.70 1012.92 1013.11 1013.13 1014.11 1013.69 1012.68 1011.73 1011.35 1011.57 1012.23 1013.32 1014.91 1016.90 1018.60 1019.12 1019.05 1018.50 1018.49 1018.14 1019.21 1019.42 1019.98 1020.32 1020.62 1020.83
1015.90 1014.56 1010.93 1010.02 1010.97 1012.87 1013.57 1012.58 1010.98 1009.79 1009.21 1009.48 1009.85 1010.29 1010.61 1010.72 1011.03 1011.57 1012.76 1013.31 1013.21 1013.81 1013.97 1014.75 1015.11 1014.33 1013.35 1013.43 1013.32 1013.33 1014.37 1016.07 1017.82 1019.31 1020.68 1021.21 1020.96 1020.69 1020.84 1020.98 1021.27 1021.66 1021.82 1022.01 1021.83
1017.68 1015.36 1011.25 1010.76 1012.26 1013.16 1013.25 1011.78 1010.43 1009.80 1009.45 1009.69 1010.06 1010.90 1011.44 1011.59 1012.15 1012.68 1013.27 1013.52 1013.64 1013.99 1015.10 1015.86 1016.40 1016.51 1015.67 1014.55 1014.00 1014.18 1015.37 1016.78 1018.97 1020.35 1021.17 1021.81 1023.17 1023.23 1023.03 1022.77 1022.52 1022.78 1022.68 1022.34 1022.06
1019.14 1016.24 1011.62 1011.49 1013.11 1013.51 1012.42 1011.32 1010.63 1010.09 1010.24 1010.52 1010.95 1011.31 1011.86 1012.54 1013.09 1013.35 1013.79 1014.01 1014.19 1014.85 1015.62 1016.40 1017.66 1018.07 1017.06 1016.01 1015.28 1015.54 1016.38 1017.27 1018.69 1020.12 1021.55 1022.88 1023.75 1024.01 1024.07 1023.58 1023.71 1023.80 1023.36 1022.98 1022.73
1019.51 1017.49 1014.79 1013.57 1013.84 1013.64 1012.74 1011.73 1010.93 1010.68 1010.77 1011.11 1011.67 1011.91 1012.77 1013.67 1013.82 1014.19 1014.44 1014.78 1014.97 1015.48 1016.11 1016.77 1018.38 1018.97 1018.95 1018.49 1017.89 1017.49 1017.32 1017.46 1018.73 1020.51 1021.56 1022.36 1023.51 1024.13 1023.97 1024.09 1024.21 1024.22 1024.08 1023.93 1023.81
1019.45 1018.68 1017.59 1016.42 1014.83 1014.33 1013.15 1012.30 1011.76 1011.60 1011.70 1012.04 1012.82 1013.21 1013.78 1014.78 1015.04 1015.49 1015.26 1015.55 1015.90 1016.37 1016.86 1017.87 1019.24 1019.39 1019.35 1018.96 1018.49 1018.16 1018.13 1018.10 1018.85 1020.00 1021.46 1022.90 1023.79 1024.55 1024.60 1024.53 1024.45 1024.44 1024.30 1024.10 1023.84
1020.13 1019.74 1018.64 1017.46 1016.09 1014.79 1013.86 1013.27 1012.77 1012.65 1012.85 1013.52 1014.25 1014.72 1014.72 1015.89 1016.40 1016.49 1016.33 1016.43 1016.67 1017.18 1017.69 1018.58 1019.73 1020.13 1020.14 1019.67 1019.33 1019.07 1018.92 1018.97 1020.06 1021.06 1022.31 1023.28 1024.27 1024.75 1025.04 1025.07 1025.16 1025.05 1024.95 1024.65 1024.16
1020.77 1019.92 1019.58 1018.09 1016.79 1015.57 1014.39 1013.77 1013.69 1013.37 1014.06 1014.02 1014.66 1015.35 1016.01 1016.46 1016.58 1016.59 1016.63 1016.74 1016.90 1017.39 1018.40 1019.35 1020.64 1021.59 1021.57 1020.77 1020.27 1020.24 1019.97 1020.17 1021.38 1022.21 1022.77 1023.88 1024.78 1025.11 1025.17 1025.05 1025.05 1025.21 1025.21 1024.75 1024.21
Wind_Speed
12 11 11 10 9 9 9 9 9 8 8 9 9 8 8 10 13 2 6 12 7 8 5 7 4 4 1 3 3 2 4 2 3 1 8 9 8 5 6 14 3 2 6 2 7
12 11 11 10 9 9 9 9 8 8 7 7 7 8 8 8 2 6 12 10 10 4 1 2 6 8 4 3 3 5 4 8 7 3 6 1 6 6 8 10 9 7 5 6 6
13 12 11 10 10 9 8 8 8 7 6 6 7 8 7 6 3 8 6 16 8 1 1 2 2 1 3 1 3 3 5 3 10 5 8 4 5 4 4 6 2 1 4 4 6
14 13 12 11 11 10 9 8 8 7 6 6 7 7 6 2 1 4 5 7 4 1 2 2 3 1 3 4 4 3 7 5 9 12 5 6 4 7 3 4 5 1 2 3 8
15 14 13 12 11 10 9 8 7 6 6 6 6 6 2 2 9 3 7 5 3 3 4 3 1 4 4 3 3 6 7 7 12 7 8 7 9 15 7 6 6 3 4 2 4
16 15 13 12 11 10 9 8 6 6 5 5 5 5 0 3 5 7 8 5 4 4 3 6 8 5 6 5 5 4 6 11 13 14 5 7 6 7 23 2 7 9 8 5 2
16 16 15 13 12 10 9 8 6 5 4 4 3 3 2 12 4 7 8 8 6 6 3 5 5 6 3 7 2 4 4 5 4 7 7 7 2 7 10 4 11 8 7 8 1
18 16 16 14 13 11 11 9 8 7 6 4 2 1 7 6 4 5 6 7 6 8 7 8 7 5 4 2 8 5 4 1 4 3 6 7 12 7 9 6 9 9 7 5 11
19 17 16 15 14 12 12 12 8 6 5 6 1 1 10 11 4 7 6 3 5 5 6 2 4 0 6 4 6 6 3 5 8 6 6 8 9 9 6 7 8 8 6 13 12
20 18 16 15 15 14 18 7 5 1 3 5 4 4 5 4 3 2 2 1 1 3 5 3 6 4 5 5 4 5 4 4 5 9 5 8 7 6 1 5 8 7 10 11 13
22 20 18 15 13 12 9 4 5 3 1 8 6 5 6 3 1 1 3 2 4 5 1 4 4 5 10 7 6 5 6 5 13 7 6 0 4 4 3 5 7 5 12 11 12
22 21 20 18 13 9 1 1 7 4 9 9 14 9 10 5 1 6 6 3 3 5 1 6 6 14 8 8 7 9 11 9 8 7 8 5 2 3 6 4 6 12 11 13 8
22 20 20 20 19 1 2 7 7 6 2 10 6 5 6 4 3 6 7 4 6 4 7 8 15 5 9 7 6 2 5 0 4 6 7 6 9 7 5 0 6 15 11 10 13
23 21 18 24 2 4 5 5 8 7 5 7 4 6 4 4 2 2 3 3 4 4 4 5 5 3 7 6 4 5 3 2 4 5 1 5 5 7 7 5 13 13 12 9 8
24 20 16 7 3 2 8 8 9 6 2 5 4 3 2 6 5 4 3 1 2 5 7 6 5 6 8 3 3 5 3 1 1 4 3 1 5 13 3 8 10 9 10 10 8
26 19 13 4 1 8 8 10 5 6 4 3 6 5 2 2 4 5 2 6 3 5 6 2 1 4 2 4 4 2 2 7 6 5 5 8 6 12 8 8 17 17 16 15 16
28 20 4 2 6 3 6 5 6 3 5 4 5 5 6 3 3 4 7 7 4 6 7 7 3 2 5 6 7 12 8 5 6 6 5 2 12 0 7 17 15 14 13 11 9
30 23 8 5 6 6 5 6 1 5 4 5 2 2 4 6 1 4 3 4 8 5 4 5 5 6 5 3 1 3 6 6 2 1 4 6 4 1 4 9 10 9 9 13 15
24 4 2 6 5 4 6 4 6 4 3 6 7 5 5 2 6 6 5 3 4 5 6 4 4 5 1 2 4 4 4 3 6 4 5 2 3 12 3 16 20 19 18 16 14
5 5 5 4 7 6 6 5 4 2 4 6 6 5 5 6 5 4 4 6 3 5 3 2 4 4 6 5 6 6 2 7 5 3 2 4 5 3 5 13 16 15 13 12 11
3 5 6 7 6 7 3 6 4 2 4 4 3 4 3 3 4 4 4 3 5 3 8 2 3 8 4 6 3 6 4 6 5 4 5 2 3 9 11 11 12 11 11 8 7
4 3 3 5 4 1 3 5 4 3 4 3 4 5 3 6 4 5 3 2 2 2 3 2 4 2 4 8 2 3 5 5 7 2 2 5 0 6 9 11 11 10 9 8 6
3 5 5 7 1 3 6 5 3 4 4 4 5 4 3 3 4 6 4 2 4 3 3 1 3 4 11 8 8 6 6 3 4 4 6 7 4 5 4 8 8 10 10 8 9
2 5 7 6 1 1 4 4 2 4 5 5 3 5 7 7 6 5 3 2 3 4 6 7 3 6 6 4 4 5 8 6 6 5 4 4 5 6 8 6 6 9 7 6 6
2 3 2 5 6 5 2 3 3 4 4 8 7 7 4 4 4 5 7 4 5 3 3 5 2 2 1 3 4 3 8 10 4 1 6 4 6 1 4 7 8 10 9 11 14
3 4 5 4 6 6 5 6 4 3 4 3 7 9 10 6 3 2 1 2 1 3 2 3 1 3 4 4 6 2 8 5 7 5 10 10 6 2 2 5 7 6 9 13 14
4 4 4 5 7 2 2 3 2 3 7 6 6 5 6 1 1 4 3 3 4 5 2 3 4 3 4 5 5 6 7 6 5 7 4 3 1 2 4 8 11 4 9 13 13
Wind_Direction
340 331 331 327 323 319 317 316 313 313 313 316 316 312 308 315 308 173 250 221 194 286 298 303 316 307 53 247 186 73 60 182 177 25 270 328 16 346 336 33 323 211 116 136 113
337 333 328 324 321 318 315 315 314 314 313 313 308 303 308 325 307 262 243 229 236 280 213 338 330 7 322 265 333 109 132 222 185 202 274 254 6 333 34 24 352 8 26 53 105
341 333 328 325 322 319 315 314 313 313 314 315 306 305 314 330 317 251 246 216 214 245 310 313 307 350 268 50 236 216 209 184 332 247 259 287 311 39 51 35 21 39 15 25 109
344 338 334 330 325 321 319 319 320 322 322 310 299 304 314 239 227 263 113 139 188 208 296 327 28 171 247 249 217 220 261 199 201 256 188 266 315 303 95 234 163 118 309 45 8
348 341 337 333 328 324 321 319 320 318 313 309 303 314 277 323 255 227 154 155 160 153 201 202 258 192 243 228 346 169 254 249 240 284 204 166 188 270 270 219 185 120 79 68 9
349 345 340 335 330 322 316 313 314 309 307 304 304 315 290 302 237 179 165 148 223 177 207 174 216 168 270 240 159 228 253 251 242 219 205 159 198 132 251 193 217 149 155 155 9
350 346 343 338 330 321 313 306 295 279 269 269 283 291 290 236 260 189 166 200 180 194 216 225 247 168 301 311 286 217 268 283 202 212 214 150 214 193 230 268 307 155 155 121 27
352 347 345 339 329 322 314 302 292 271 244 229 242 305 256 255 250 224 174 287 216 228 223 257 247 202 185 274 3 4 41 335 283 226 256 125 253 193 206 230 264 171 167 116 60
351 347 344 340 331 323 305 289 270 248 210 160 123 132 278 313 224 253 177 247 311 210 204 230 49 274 10 63 8 5 242 282 316 231 227 163 240 236 237 168 180 181 147 102 95
349 345 341 336 331 326 312 251 159 59 181 195 259 326 277 224 222 222 257 16 337 344 11 21 44 33 12 76 228 254 292 302 269 289 250 192 207 168 158 141 190 170 103 102 96
347 343 338 333 327 329 346 15 20 18 257 201 212 234 269 241 104 257 252 356 11 28 307 312 54 245 241 216 229 273 281 285 292 282 68 184 126 197 230 185 164 123 124 115 102
344 341 336 330 322 319 287 126 223 146 304 233 244 242 255 201 255 273 150 138 146 240 359 359 261 241 230 247 229 256 260 265 247 353 73 7 320 273 295 248 191 138 133 128 116
341 338 334 326 316 123 194 235 254 51 292 299 217 211 236 137 243 232 144 179 202 224 229 179 239 283 196 240 204 156 115 36 50 334 15 44 336 330 307 179 94 134 123 124 133
338 335 334 322 28 328 263 284 308 137 43 278 212 244 182 141 242 222 203 157 333 260 294 193 278 344 61 51 32 65 305 69 84 73 241 81 268 294 313 101 106 122 131 146 111
333 331 329 300 274 313 251 339 330 56 8 215 234 188 194 148 161 264 227 115 274 301 69 270 13 53 49 338 61 203 268 287 286 82 62 1 74 320 11 85 42 34 40 44 58
331 328 328 94 225 246 325 318 55 49 265 245 162 192 155 220 212 200 51 30 8 20 355 314 62 84 181 334 320 339 19 30 40 82 34 304 130 0 3 69 76 66 63 67 79
328 324 279 306 233 319 350 36 43 136 297 207 205 174 193 227 195 91 84 37 66 35 3 341 14 79 45 29 354 40 46 360 20 25 213 135 54 347 87 92 92 93 85 89 93
326 319 192 223 246 35 34 50 79 257 299 339 7 29 131 166 81 111 89 64 21 77 70 44 340 352 337 100 288 10 121 137 125 118 267 12 89 161 87 89 79 59 64 46 36
320 335 266 256 209 108 71 66 216 254 335 357 349 24 333 84 121 90 72 64 54 35 103 31 294 315 32 98 104 321 40 159 109 356 69 75 161 28 41 69 61 57 55 52 48
333 332 272 238 125 71 77 227 256 317 11 30 45 17 40 5 61 67 80 335 77 43 108 337 345 11 309 29 2 90 239 34 11 83 75 338 60 172 5 64 65 53 47 40 38
12 6 267 138 73 54 164 228 301 324 83 77 40 44 57 23 66 45 46 7 55 60 67 56 85 295 8 40 324 359 28 59 104 112 139 137 278 29 59 57 57 47 41 36 31
359 341 294 28 58 91 185 215 274 177 23 50 93 64 78 28 61 61 94 103 357 25 63 343 134 302 285 290 239 105 64 92 111 251 116 140 129 4 46 51 47 28 10 357 4
336 274 321 97 121 289 283 271 110 65 36 60 39 70 39 61 59 125 132 139 59 79 122 352 26 21 349 350 3 22 21 102 108 74 190 135 208 115 67 39 40 13 343 343 4
5 354 326 29 132 288 335 337 92 47 49 79 69 50 48 37 33 44 117 88 70 78 90 83 90 144 177 207 272 334 329 328 129 111 211 212 129 6 2 9 5 360 332 353 354
39 287 164 307 320 338 323 335 93 64 44 23 33 20 130 68 30 36 33 91 27 142 62 94 113 33 236 324 1 343 358 330 41 128 130 138 100 117 359 349 348 340 354 350 341
54 25 343 294 294 335 358 16 64 36 64 40 85 62 63 89 95 89 117 50 186 48 73 16 218 58 326 11 18 340 346 356 93 77 101 117 103 51 22 304 329 357 354 341 341
314 337 106 284 322 358 280 118 111 108 20 88 116 102 64 66 250 245 233 204 180 145 139 107 114 78 268 337 2 2 337 72 89 27 104 103 71 253 263 338 335 12 347 340 325